2023/05/04 00:00:00,15.4,12.0
2023/05/04 00:10:00,15.2,11.8
2023/05/04 00:20:00,15.3,11.7
2023/05/04 00:30:00,14.7,12.0
2023/05/04 00:40:00,---,12.4
2023/05/04 00:50:00,15.3,11.7
2023/05/04 01:00:00,13.7,11.7
2023/05/04 01:10:00,15.7,11.7
2023/05/04 01:20:00,15.1,11.6
2023/05/04 01:30:00,15.5,11.5
2023/05/04 01:40:00,15.3,11.8
2023/05/04 01:50:00, 8.7,11.6
2023/05/04 02:00:00, 8.7,11.5
2023/05/04 02:10:00, 9.4,11.3
2023/05/04 02:20:00,12.8,11.1
2023/05/04 02:30:00, 8.8,10.9
2023/05/04 02:40:00,10.3,10.6
2023/05/04 02:50:00,10.3,10.4
2023/05/04 03:00:00, 4.6,10.6
2023/05/04 03:10:00, 2.5,10.3
2023/05/04 03:20:00,12.2,10.0
2023/05/04 03:30:00,14.1,10.2
2023/05/04 03:40:00,14.1, 9.3
2023/05/04 03:50:00,13.9, 9.6
2023/05/04 04:00:00,14.4, 9.4
2023/05/04 04:10:00,14.6, 9.3
2023/05/04 04:20:00,15.6, 9.1
2023/05/04 04:30:00,15.5, 9.0
2023/05/04 04:40:00,15.0, 8.9
2023/05/04 04:50:00,14.8, 9.1
2023/05/04 05:00:00,14.1, 8.7
2023/05/04 05:10:00,12.6, 8.9
2023/05/04 05:20:00,14.2, 8.8
2023/05/04 05:30:00,14.7, 8.7
2023/05/04 05:40:00,14.9, 8.8
2023/05/04 05:50:00,14.5, 8.8
2023/05/04 06:00:00,14.6, 9.1
2023/05/04 06:10:00,14.9, 9.4
2023/05/04 06:20:00,15.0, 9.6
2023/05/04 06:30:00,15.2,10.2
2023/05/04 06:40:00,15.4,10.6
2023/05/04 06:50:00,15.5,11.1
2023/05/04 07:00:00,15.3,12.0
2023/05/04 07:10:00,14.8,12.0
2023/05/04 07:20:00,14.5,12.7
2023/05/04 07:30:00,15.0,13.2
2023/05/04 07:40:00,14.5,14.1
2023/05/04 07:50:00,14.1,15.3
2023/05/04 08:00:00,13.7,15.3
2023/05/04 08:10:00,13.1,16.0
2023/05/04 08:20:00,12.3,16.8
2023/05/04 08:30:00,11.6,16.8
2023/05/04 08:40:00,10.3,17.5
2023/05/04 08:50:00, 6.7,18.2
2023/05/04 09:00:00, 4.7,19.0
2023/05/04 09:10:00, 3.3,19.8
2023/05/04 09:20:00, 2.2,21.0
2023/05/04 09:30:00, 1.2,22.5
2023/05/04 09:40:00, 1.7,22.5
2023/05/04 09:50:00, 1.3,22.4
2023/05/04 10:00:00, 0.8,22.5
2023/05/04 10:10:00, 1.7,23.0
2023/05/04 10:20:00, 0.8,23.0
2023/05/04 10:30:00, 1.4,23.7
2023/05/04 10:40:00, 1.6,23.4
2023/05/04 10:50:00, 2.0,24.0
2023/05/04 11:00:00, 1.2,24.2
2023/05/04 11:10:00, 1.3,23.6
2023/05/04 11:20:00, 1.2,24.0
2023/05/04 11:30:00, 0.9,25.1
2023/05/04 11:40:00, 1.0,25.3
2023/05/04 11:50:00, 1.2,25.4
2023/05/04 12:00:00, 1.0,25.4
2023/05/04 12:10:00, 1.0,25.8
2023/05/04 12:20:00, 2.1,24.5
2023/05/04 12:30:00, 2.7,25.1
2023/05/04 12:40:00, 3.2,25.7
2023/05/04 12:50:00, 2.9,25.7
2023/05/04 13:00:00, 0.9,25.7
2023/05/04 13:10:00, 0.1,25.9
2023/05/04 13:20:00, 0.2,25.5
2023/05/04 13:30:00, 0.4,25.7
2023/05/04 13:40:00, 0.7,26.7
2023/05/04 13:50:00, 1.0,26.9
2023/05/04 14:00:00, 1.3,26.7
2023/05/04 14:10:00, 1.1,26.5
2023/05/04 14:20:00, 1.0,26.9
2023/05/04 14:30:00, 2.2,27.5
2023/05/04 14:40:00, 2.4,26.8
2023/05/04 14:50:00, 2.1,26.6
2023/05/04 15:00:00, 2.4,26.2
2023/05/04 15:10:00, 1.4,26.9
2023/05/04 15:20:00, 2.4,26.7
2023/05/04 15:30:00, 5.1,26.1
2023/05/04 15:40:00, 5.0,26.7
2023/05/04 15:50:00, 5.7,26.3
2023/05/04 16:00:00, 5.3,26.1
2023/05/04 16:10:00, 6.3,26.0
2023/05/04 16:20:00, 4.9,25.4
2023/05/04 16:30:00, 4.4,26.0
2023/05/04 16:40:00, 7.7,25.2
2023/05/04 16:50:00, 7.3,25.3
2023/05/04 17:00:00, 7.9,25.2
2023/05/04 17:10:00, 7.9,24.6
2023/05/04 17:20:00, 7.7,24.4
2023/05/04 17:30:00, 8.6,24.1
2023/05/04 17:40:00, 8.4,23.5
2023/05/04 17:50:00, 8.6,22.8
2023/05/04 18:00:00, 9.4,22.3
2023/05/04 18:10:00,10.0,22.2
2023/05/04 18:20:00,11.3,21.8
2023/05/04 18:30:00, 9.9,21.2
2023/05/04 18:40:00,10.2,20.8
2023/05/04 18:50:00, 9.7,20.4
2023/05/04 19:00:00,10.9,20.3
2023/05/04 19:10:00,10.9,20.1
2023/05/04 19:20:00,11.9,19.4
2023/05/04 19:30:00, 9.3,19.4
2023/05/04 19:40:00,10.4,19.2
2023/05/04 19:50:00,11.2,18.8
2023/05/04 20:00:00,12.5,18.7
2023/05/04 20:10:00,12.0,18.6
2023/05/04 20:20:00,12.7,18.7
2023/05/04 20:30:00,12.4,18.6
2023/05/04 20:40:00,12.0,18.4
2023/05/04 20:50:00,12.9,18.1
2023/05/04 21:00:00,12.9,17.7
2023/05/04 21:10:00,13.1,18.2
2023/05/04 21:20:00,13.5,18.3
2023/05/04 21:30:00,13.8,17.7
2023/05/04 21:40:00,14.2,16.8
2023/05/04 21:50:00,14.6,16.9
2023/05/04 22:00:00,14.5,16.4
2023/05/04 22:10:00,14.6,16.3
2023/05/04 22:20:00,14.6,17.1
2023/05/04 22:30:00,14.1,17.3
2023/05/04 22:40:00,14.3,17.2
2023/05/04 22:50:00,14.3,17.2
2023/05/04 23:00:00,14.2,17.3
2023/05/04 23:10:00,14.3,17.0
2023/05/04 23:20:00,14.3,16.9
2023/05/04 23:30:00,14.4,16.8
2023/05/04 23:40:00,14.4,17.0
2023/05/04 23:50:00,14.5,16.9
